Regional Weather Roundup
Issued by NWS Little Rock, AR

Home | Current Version | Previous Version | Text Only | Print | Product List | Glossary On
Versions: 1 2 3 4 5 6 7 8 9 10 11 12 13 14 15 16 17 18 19 20 21 22 23 24 25 26 27 28 29 30 31 32 33 34 35 36 37 38 39 40 41 42 43 44 45 46 47 48 49 50
000
ASUS44 KLZK 232005
RWRLZK

WEATHER ROUNDUP FOR ARKANSAS
NATIONAL WEATHER SERVICE LITTLE ROCK AR
300 PM CDT TUE SEP 23 2014

NOTE: "FAIR" INDICATES FEW OR NO CLOUDS BELOW 12,000 FEET WITH NO
SIGNIFICANT WEATHER AND/OR OBSTRUCTIONS TO VISIBILITY.

ARZ001-003-010-029-232100-
NORTHWEST ARKANSAS

CITY           SKY/WX    TMP DP  RH WIND       PRES   REMARKS
FAYETTEVILLE   SUNNY     73  48  41 VRB5      30.20F
FORT SMITH     SUNNY     77  49  37 E9        30.18F
HARRISON       SUNNY     71  47  42 SE8       30.23F
BENTONVILLE    SUNNY     75  48  38 SE6       30.22F
ROGERS         MOSUNNY   74  46  36 E8        30.22F
SILOAM SPGS    SUNNY     75  46  35 E6        30.21F
HIGHFILL       SUNNY     74  46  36 E6        30.20F
SPRINGDALE     MOSUNNY   73  50  43 CALM      30.23F
$$

ARZ004-005-016-232100-
NORTH CENTRAL ARKANSAS

CITY           SKY/WX    TMP DP  RH WIND       PRES   REMARKS
BATESVILLE     SUNNY     79  45  29 NW6       30.21F
FLIPPIN        SUNNY     73  46  38 E6        30.22F
MTN HOME       SUNNY     72  46  39 SE6       30.22F
$$

ARZ040-041-232100-
WEST CENTRAL ARKANSAS

CITY           SKY/WX    TMP DP  RH WIND       PRES   REMARKS
MENA           MOSUNNY   77  50  38 CALM      30.20F
MOUNT IDA      MOSUNNY   77  49  37 CALM      30.18F
$$

ARZ009-017-025-026-028-232100-
NORTHEAST ARKANSAS

CITY           SKY/WX    TMP DP  RH WIND       PRES   REMARKS
CORNING          N/A     75  46  35 NE10      30.22F
JONESBORO      SUNNY     79  43  27 NE7       30.21F
NEWPORT        SUNNY     79  42  26 NE12      30.21F
WALNUT RIDGE   SUNNY     75  46  35 NE8       30.21F
BLYTHEVILLE    SUNNY     79  46  31 NE10      30.21F
NW BLYTHEVILLE MOSUNNY   77  50  38 N7        30.22F
$$

ARZ022-023-033-042-044-232100-
CENTRAL ARKANSAS

CITY           SKY/WX    TMP DP  RH WIND       PRES   REMARKS
LITTLE ROCK    MOSUNNY   79  44  28 NE3       30.19F
N LITTLE ROCK  MOSUNNY   78  46  32 E6        30.19F
JACKSONVILLE   SUNNY     79  46  30 E6        30.19F
SEARCY           N/A    N/A N/A N/A MISG        N/A
HOT SPRINGS    MOSUNNY   78  44  29 VRB5      30.18F
RUSSELLVILLE   SUNNY     77  47  34 VRB3      30.19F
CLINTON        FAIR      79  46  31 S5        30.20F
$$

ARZ036-232100-
EAST ARKANSAS

CITY           SKY/WX    TMP DP  RH WIND       PRES   REMARKS
WEST MEMPHIS   SUNNY     80  45  28 E8        30.18F
$$

ARZ050-053-066-070-073-232100-
SOUTHWEST ARKANSAS

CITY           SKY/WX    TMP DP  RH WIND       PRES   REMARKS
ARKADELPHIA    FAIR      79  50  36 VRB5      30.17F
CAMDEN         SUNNY     82  46  28 NE6       30.16F
TEXARKANA      MOSUNNY   78  51  38 NE6       30.16F
EL DORADO      SUNNY     79  51  37 NE6       30.15F
DE QUEEN       MOSUNNY   77  53  43 E6        30.16F
$$

ARZ056-057-069-232100-
SOUTHEAST ARKANSAS

CITY           SKY/WX    TMP DP  RH WIND       PRES   REMARKS
PINE BLUFF     SUNNY     79  44  28 E7        30.18F
STUTTGART      SUNNY     79  46  31 NE9       30.19F
MONTICELLO     SUNNY     81  44  27 NE8       30.16F

$$




USA.gov is the U.S. government's official web portal to all federal, state and local government web resources and services.